Location: Munkebjergskolens Observatorium
(55.3864°N, 10.3987°E)
Time: 10:01:47
(UTC+01:00)

COSMOS 2251 DEB - Pass Details

Date: 14 December 2023
Orbit: 609 x 851 km, 74.0° (Epoch: 02 March)

Event Time Altitude Azimuth Distance (km) Brightness Sun altitude
Exits shadow 07:33:12 - 331° (NNW) 2,894 ? -8.3°
Reaches altitude 10° 07:34:18 10° 331° (NNW) 2,482 ? -8.2°
Maximum altitude 07:40:02 83° 245° (WSW) 870 ? -7.5°
Drops below altitude 10° 07:45:46 10° 158° (SSE) 2,473 ? -6.8°
Sets 07:48:11 0° 158° (SSE) 3,390 ? -6.5°
